Location: Minneapolis
(45.0000°N, 93.0000°W)
Time: 10:30:55
(UTC-05:00)

N. Korean satellite - Pass Details

Date: 14 March 2018
Orbit: 459 x 511 km, 97.2° (Epoch: 21 June)

Event Time Altitude Azimuth Distance (km) Brightness Sun altitude
Rises 19:53:25 0° 202° (SSW) 2,535 10.5 -7.3°
Reaches altitude 10° 19:55:55 10° 220° (SW) 1,672 9.8 -7.7°
Maximum altitude 19:58:32 19° 267° (W) 1,229 9.9 -8.2°
Drops below altitude 10° 20:01:12 10° 314° (NW) 1,705 10.2 -8.7°
Sets 20:03:47 0° 333° (NNW) 2,605 10.8 -9.1°
